AUA591 LOWW-LIBD

Flight info

Callsign AUA591
Flight time N/A
Altitude 37000
Route STEIN DCT NOHAT DCT KOPRY DCT DIXUM DCT ORAKA DCT AIOSA DCT BANAV
Aircraft A320/M-SDE3FGHIRWY/LB1

Departure

Time 2026-04-23 10:32
Airport Vienna International Airport (LOWW)

Arrival

Time N/A
Airport Bari Karol Wojtyła International Airport (LIBD)
Time Latitude Longitude Altitude Speed Heading
2026-04-23 09:57 48.11692 16.56848 601 ft 0 kts 27°
2026-04-23 10:23 48.11683 16.56842 601 ft 2 kts 25°
2026-04-23 10:23 48.11670 16.56833 601 ft 2 kts 25°
2026-04-23 10:23 48.11656 16.56823 601 ft 2 kts 36°
2026-04-23 10:23 48.11645 16.56808 601 ft 2 kts 54°
2026-04-23 10:24 48.11638 16.56788 601 ft 2 kts 72°
2026-04-23 10:24 48.11635 16.56767 601 ft 2 kts 89°
2026-04-23 10:24 48.11637 16.56744 601 ft 2 kts 107°
2026-04-23 10:24 48.11639 16.56732 601 ft 1 kts 116°
2026-04-23 10:25 48.11642 16.56726 601 ft 0 kts 117°
2026-04-23 10:27 48.11640 16.56731 601 ft 2 kts 117°
2026-04-23 10:27 48.11627 16.56768 601 ft 6 kts 117°
2026-04-23 10:27 48.11607 16.56834 602 ft 5 kts 115°
2026-04-23 10:28 48.11580 16.56904 602 ft 9 kts 137°
2026-04-23 10:28 48.11506 16.56900 603 ft 13 kts 204°
2026-04-23 10:28 48.11423 16.56840 603 ft 12 kts 207°
2026-04-23 10:28 48.11359 16.56833 603 ft 10 kts 139°
2026-04-23 10:29 48.11322 16.56929 604 ft 11 kts 115°
2026-04-23 10:29 48.11289 16.57036 604 ft 11 kts 115°
2026-04-23 10:29 48.11250 16.57153 604 ft 13 kts 117°
2026-04-23 10:29 48.11205 16.57239 604 ft 9 kts 167°
2026-04-23 10:30 48.11145 16.57209 604 ft 9 kts 206°
2026-04-23 10:30 48.11090 16.57169 604 ft 8 kts 207°
2026-04-23 10:30 48.11059 16.57144 605 ft 2 kts 210°
2026-04-23 10:30 48.11051 16.57118 605 ft 3 kts 282°
2026-04-23 10:31 48.11063 16.57079 605 ft 4 kts 296°
2026-04-23 10:31 48.11132 16.56871 604 ft 55 kts 296°
2026-04-23 10:31 48.11406 16.56027 591 ft 123 kts 296°
2026-04-23 10:31 48.11859 16.54666 857 ft 153 kts 299°
2026-04-23 10:32 48.12233 16.53223 1589 ft 157 kts 279°
2026-04-23 10:32 48.11811 16.51687 2184 ft 183 kts 233°
2026-04-23 10:32 48.10727 16.50496 2642 ft 199 kts 224°
2026-04-23 10:32 48.09554 16.49289 3073 ft 213 kts 223°
2026-04-23 10:33 48.08285 16.47988 3467 ft 235 kts 218°
2026-04-23 10:33 48.06633 16.47193 3868 ft 268 kts 187°
2026-04-23 10:33 48.04718 16.47472 4372 ft 288 kts 174°
2026-04-23 10:33 48.02703 16.48002 5020 ft 298 kts 173°
2026-04-23 10:34 48.00676 16.48490 5797 ft 302 kts 174°
2026-04-23 10:34 47.98591 16.48904 6629 ft 305 kts 177°
2026-04-23 10:34 47.96501 16.48740 7396 ft 305 kts 198°
2026-04-23 10:34 47.94537 16.47552 8199 ft 304 kts 212°
2026-04-23 10:35 47.92693 16.46054 8927 ft 310 kts 214°
2026-04-23 10:35 47.90780 16.44463 9670 ft 317 kts 213°
2026-04-23 10:35 47.88758 16.43002 10361 ft 328 kts 199°
2026-04-23 10:35 47.86442 16.42630 10774 ft 345 kts 172°
2026-04-23 10:36 47.84094 16.43436 11264 ft 355 kts 161°
2026-04-23 10:36 47.81713 16.44486 11971 ft 360 kts 161°
2026-04-23 10:36 47.79316 16.45539 12728 ft 363 kts 161°
2026-04-23 10:36 47.76877 16.46567 13469 ft 366 kts 161°
2026-04-23 10:37 47.74442 16.47559 14181 ft 368 kts 161°
2026-04-23 10:37 47.71968 16.48546 14910 ft 370 kts 162°
2026-04-23 10:37 47.69472 16.49532 15595 ft 373 kts 162°
2026-04-23 10:37 47.66987 16.50509 16270 ft 374 kts 162°
2026-04-23 10:38 47.64471 16.51495 16925 ft 376 kts 161°
2026-04-23 10:38 47.61921 16.52498 17556 ft 379 kts 161°
2026-04-23 10:38 47.59383 16.53493 18182 ft 381 kts 161°
2026-04-23 10:38 47.56827 16.54493 18787 ft 383 kts 161°
2026-04-23 10:39 47.54242 16.55506 19350 ft 386 kts 161°
2026-04-23 10:39 47.51647 16.56518 19890 ft 390 kts 161°
2026-04-23 10:39 47.49029 16.57540 20427 ft 393 kts 161°
2026-04-23 10:39 47.46374 16.58576 20954 ft 397 kts 161°
2026-04-23 10:40 47.43661 16.59488 21493 ft 402 kts 166°
2026-04-23 10:40 47.40902 16.60045 21990 ft 408 kts 172°
2026-04-23 10:40 47.38034 16.60265 22481 ft 413 kts 175°
2026-04-23 10:40 47.35171 16.60384 22959 ft 416 kts 176°
2026-04-23 10:41 47.32259 16.60489 23474 ft 418 kts 176°
2026-04-23 10:41 47.31288 16.60525 23636 ft 419 kts 176°
2026-04-23 10:41 47.31126 16.60531 23662 ft 420 kts 176°